Wind_Speed
11 12 14 16 19 19 18 17 18 21 25 29 31 29 28 26 25 23 21 18 18 17 15 13 12 10 10 12 13 10 10 13 14 15 14 13 16 14 19 17 12 8 5 6 5 9 17
9 12 14 16 18 19 21 23 21 19 18 17 20 25 32 29 26 23 22 22 21 20 19 18 17 17 16 16 12 10 8 14 15 15 14 14 14 14 17 17 12 9 6 5 4 7 12
8 11 14 16 17 18 20 20 21 25 24 22 21 21 21 33 31 28 26 25 25 25 23 21 20 19 20 16 12 14 15 14 16 16 16 16 13 13 16 16 11 4 9 8 4 6 7
10 12 13 15 17 19 19 19 20 21 23 26 26 26 26 26 33 32 30 27 26 24 23 21 20 20 20 17 20 23 20 18 19 18 18 17 12 11 15 13 12 8 11 8 9 4 8
14 12 12 14 14 16 18 19 18 20 21 21 24 25 26 27 31 31 29 27 24 23 21 21 21 21 21 19 22 25 23 22 21 22 20 18 13 11 12 9 14 14 14 13 7 7 6
15 13 11 10 11 12 15 17 18 18 19 19 19 22 24 26 27 28 27 24 21 20 20 21 21 21 21 19 19 23 26 24 21 21 23 22 18 15 15 11 17 15 16 16 7 11 5
13 13 10 7 9 10 11 13 14 17 17 17 17 18 21 20 22 23 22 21 20 18 18 17 16 18 18 19 22 23 25 25 24 25 24 25 20 16 17 16 24 18 13 14 14 14 10
12 13 11 8 9 8 9 9 10 12 14 14 16 16 15 15 19 20 20 20 19 18 20 18 17 19 18 18 20 21 25 25 25 25 26 27 19 15 22 22 27 18 15 11 13 14 6
10 10 12 10 8 7 7 8 9 9 11 13 14 16 15 16 18 18 19 20 20 18 20 18 19 20 17 17 18 21 22 26 25 27 28 27 21 24 23 25 26 18 18 14 10 15 11
9 10 10 10 9 7 8 8 7 7 9 10 14 15 16 17 20 20 21 21 18 19 20 20 20 20 19 20 22 21 22 23 25 25 28 28 24 25 24 23 23 25 24 20 12 18 13
14 12 11 9 8 7 6 8 9 8 8 7 11 11 16 18 17 18 20 20 19 18 18 18 19 20 20 22 22 20 22 22 24 27 29 26 25 26 27 22 24 20 29 27 21 13 13
15 16 14 11 8 6 5 6 7 7 8 8 8 9 13 12 15 20 17 16 16 16 17 18 20 20 21 21 21 20 21 21 25 26 29 27 27 28 27 30 28 28 28 26 21 13 17
15 15 16 14 11 9 8 8 7 7 9 9 9 11 13 10 12 16 16 17 17 17 19 24 21 21 20 17 15 17 18 18 22 25 26 27 30 27 27 32 31 36 31 25 17 20 15
18 16 16 16 15 12 11 12 12 11 11 10 12 12 12 11 13 13 15 17 17 21 24 21 19 19 21 20 17 16 16 18 21 23 26 29 27 23 22 29 33 32 31 25 18 17 22
20 18 16 16 17 16 14 15 16 15 16 14 14 13 12 14 14 14 13 15 20 23 24 21 20 21 22 21 19 19 16 17 19 21 23 25 20 21 24 35 39 35 32 22 18 24 21
22 20 19 19 19 18 18 18 17 18 19 19 20 17 15 16 14 15 13 17 21 24 25 23 22 19 20 19 20 21 18 16 12 16 19 22 20 24 25 32 41 35 27 24 26 27 24
22 21 22 22 22 21 21 21 21 21 21 22 22 20 17 16 14 13 15 22 26 31 29 28 25 22 21 18 21 17 17 13 12 9 15 21 22 21 24 27 30 31 31 31 28 28 27
21 21 21 21 22 22 23 23 23 24 23 21 18 18 17 17 16 15 20 27 32 35 32 31 31 27 24 22 19 20 22 16 15 15 11 6 19 23 29 29 26 27 24 32 35 30 36
22 22 22 23 23 22 22 22 24 23 22 19 15 16 15 16 17 19 22 24 28 33 35 35 35 32 29 26 23 24 21 20 14 17 16 12 14 29 36 32 28 24 24 21 20 18 24
22 23 23 22 21 20 19 20 20 19 18 17 15 13 15 17 17 16 17 20 26 33 35 33 33 35 34 32 29 30 23 23 21 19 21 17 19 23 34 31 26 24 24 27 25 22 19
23 23 22 22 20 20 19 19 16 15 16 15 14 13 18 20 20 18 17 22 25 29 34 32 34 32 35 36 32 34 30 26 25 25 24 22 18 22 26 35 34 30 26 27 28 26 26
24 23 23 23 23 22 20 20 16 15 17 18 18 18 20 20 18 18 16 20 22 25 30 32 31 30 32 34 35 39 40 36 31 29 31 29 26 25 22 30 39 39 32 28 28 26 26
26 25 24 22 23 22 22 22 20 18 20 20 20 19 19 19 19 20 15 17 17 21 25 30 32 29 33 35 34 36 45 42 40 35 33 35 33 30 28 27 41 45 41 30 30 31 30
29 28 26 24 22 22 22 23 21 21 22 21 20 19 19 20 19 20 18 17 14 17 24 27 29 31 32 37 35 36 43 44 44 41 38 37 40 39 38 31 32 38 40 38 37 30 40
31 31 29 27 25 24 23 24 22 22 21 18 18 18 20 21 20 19 18 17 17 19 22 23 25 28 32 34 35 35 41 43 43 45 44 43 45 43 45 42 31 28 31 43 36 30 36
33 32 31 29 26 25 24 23 23 20 17 15 17 18 19 21 21 19 18 16 18 22 24 26 28 27 29 33 31 31 28 30 31 37 37 38 42 41 41 39 29 20 29 39 35 31 33
35 34 32 31 28 27 25 22 19 19 19 17 17 18 18 20 25 20 17 18 21 23 25 27 30 36 33 34 31 30 25 20 21 27 26 30 38 44 44 42 28 19 31 33 40 34 36
37 35 35 34 31 29 28 27 24 23 22 19 20 20 19 21 27 20 20 21 21 23 25 25 31 37 38 36 30 28 26 25 21 18 28 30 34 41 47 43 33 23 31 32 29 33 30
38 37 35 34 34 31 30 30 30 28 26 26 21 21 19 21 28 22 21 23 22 20 21 21 26 32 35 31 30 30 30 26 23 21 22 25 26 33 34 43 36 25 23 35 36 32 32
Wind_Direction
254 250 247 244 243 242 240 241 243 245 247 247 247 246 247 245 243 240 239 235 227 226 228 231 234 233 224 230 232 247 237 228 222 229 232 230 220 219 214 233 218 210 181 94 18 25 28
261 257 255 252 249 246 246 246 248 247 247 250 250 250 246 245 241 235 230 232 234 235 238 243 245 243 236 238 244 248 245 240 233 235 241 240 242 229 224 231 240 239 209 138 311 350 23
295 272 258 254 253 253 252 251 252 248 249 251 254 258 260 242 238 235 233 234 238 244 247 247 245 240 238 237 241 246 237 229 238 237 246 246 252 234 225 235 265 237 202 178 218 299 357
314 290 271 260 252 251 253 255 255 255 255 253 253 256 254 257 237 235 236 238 239 241 244 245 245 243 243 228 225 231 227 228 232 236 242 252 256 255 232 253 258 229 188 197 210 278 9
325 312 289 263 260 255 253 252 256 258 257 257 256 255 251 252 237 233 234 235 238 238 238 239 241 242 241 233 227 239 239 235 234 238 238 246 247 249 242 238 241 222 176 182 230 250 75
340 331 311 275 262 264 259 256 256 259 260 259 260 254 252 243 237 230 232 233 232 237 243 245 243 244 245 241 230 234 245 241 234 242 249 245 235 231 228 209 222 227 199 191 222 250 227
342 344 339 304 275 274 268 265 264 257 259 255 255 252 242 233 235 228 228 229 239 245 245 246 247 246 245 243 233 227 238 239 235 236 240 247 245 239 232 203 218 241 210 206 210 237 280
333 348 341 328 304 292 274 270 277 264 255 254 248 245 234 225 227 226 229 234 237 233 241 240 246 248 245 246 245 237 234 236 239 237 240 241 244 232 232 225 219 225 221 208 184 196 200
331 335 346 335 324 290 299 278 280 281 262 252 249 244 241 234 233 230 231 234 235 236 246 242 245 251 249 249 251 246 239 238 236 237 236 239 236 231 227 223 220 203 212 205 199 203 223
314 331 323 334 329 311 286 286 286 287 279 262 249 248 246 243 241 240 238 238 239 237 240 249 245 247 245 245 242 244 243 240 235 237 237 235 232 231 230 228 224 195 209 210 206 218 214
287 306 312 309 317 321 308 289 280 282 278 277 250 251 247 243 242 242 240 238 236 238 241 243 240 244 241 238 241 238 240 239 238 233 234 235 231 225 226 221 227 202 219 214 210 219 219
298 288 289 291 291 299 314 298 293 292 281 271 261 253 252 245 237 240 240 240 239 236 232 234 228 235 239 239 242 240 238 239 240 238 235 229 228 225 220 207 219 195 212 222 225 258 225
298 300 280 280 290 277 291 300 295 290 283 276 271 263 256 250 242 240 234 233 234 231 227 231 231 230 237 243 235 233 235 241 243 240 236 232 233 227 218 215 220 207 217 220 229 259 255
288 294 286 276 282 290 285 285 286 284 285 284 276 271 266 256 245 239 232 227 222 230 233 231 233 240 239 235 226 223 222 237 241 240 237 230 228 228 223 212 211 218 222 234 238 228 243
283 286 285 278 282 288 286 289 290 284 281 282 279 278 268 254 248 237 229 216 223 230 238 231 225 226 224 220 215 218 211 223 236 236 237 232 228 225 217 202 211 216 225 231 241 246 245
278 278 278 279 281 282 286 287 287 287 283 285 277 277 268 261 252 238 220 205 217 230 237 235 229 233 240 225 226 219 209 215 225 234 236 229 209 221 212 211 212 218 220 224 237 250 256
273 276 277 278 279 282 285 286 286 285 280 284 273 270 268 259 250 232 212 203 208 226 227 227 231 235 244 240 223 207 216 214 195 216 236 230 214 212 213 210 214 225 222 225 235 248 266
268 276 279 281 279 281 285 286 284 286 280 282 276 265 262 252 245 230 215 213 220 229 224 221 231 242 240 245 240 216 214 211 198 196 171 210 217 201 201 199 195 207 215 228 236 255 257
267 273 277 280 279 279 281 283 281 279 274 272 269 268 265 257 252 246 236 229 225 233 237 230 232 242 242 244 244 233 232 210 194 204 198 196 210 190 193 199 205 213 219 212 231 249 257
266 269 274 275 274 274 280 281 281 269 268 269 259 269 259 252 243 235 238 233 226 233 239 242 235 241 240 239 250 237 227 237 217 217 219 220 223 208 207 208 212 221 231 237 233 244 249
265 267 269 269 272 275 274 272 268 265 266 270 258 251 253 256 254 250 226 229 229 230 238 244 246 242 241 238 245 243 224 227 234 230 232 224 236 230 221 211 220 218 224 237 235 230 239
261 265 269 273 274 275 270 254 264 268 276 272 261 253 255 258 252 247 243 245 239 237 242 252 250 253 252 248 241 244 232 226 227 228 229 224 232 231 230 226 223 222 220 235 238 234 241
261 263 267 272 274 268 260 252 258 267 276 274 262 258 257 260 255 252 250 254 250 242 244 248 253 250 248 252 245 243 236 230 224 224 227 229 233 237 235 234 229 225 220 223 232 238 241
259 261 265 270 273 268 257 249 255 265 270 269 265 258 255 256 252 255 254 246 239 239 242 244 251 253 246 251 255 252 242 235 232 227 231 236 238 241 248 245 247 235 226 228 236 243 233
253 257 260 264 267 265 254 249 254 261 263 264 260 253 253 255 251 254 256 246 233 240 236 238 245 250 250 248 254 252 242 238 239 236 236 240 245 248 247 250 252 248 232 228 242 242 220
247 250 253 257 260 256 252 247 253 252 254 261 260 257 253 255 259 252 249 246 237 241 244 237 240 247 251 253 254 253 254 252 248 244 241 239 232 236 245 250 251 250 234 221 223 230 226
244 245 248 251 255 248 244 242 237 255 256 260 267 264 254 252 258 258 252 246 243 243 245 245 237 235 244 247 250 250 258 254 260 238 246 243 234 233 242 252 251 236 228 219 223 232 233
242 243 245 249 247 243 243 235 242 256 256 256 267 268 258 252 257 255 254 254 250 249 252 255 241 231 234 244 249 247 255 253 250 247 243 249 257 244 237 246 247 237 218 216 230 238 236
239 241 245 246 238 238 238 239 243 252 259 262 261 264 261 252 258 251 247 254 257 258 261 264 255 236 236 239 250 258 257 248 241 237 241 251 254 250 255 244 242 230 225 215 222 236 238
Height
5877 5877 5878 5878 5879 5879 5880 5881 5882 5882 5883 5885 5887 5888 5890 5892 5894 5896 5897 5899 5901 5902 5904 5905 5906 5907 5908 5908 5908 5909 5910 5910 5911 5912 5913 5914 5915 5916 5918 5919 5918 5917 5918 5919 5921 5920 5920
5875 5874 5874 5874 5875 5876 5876 5877 5878 5879 5879 5880 5881 5882 5884 5887 5889 5891 5893 5895 5897 5899 5900 5902 5903 5905 5906 5907 5908 5909 5910 5910 5910 5911 5912 5913 5913 5915 5918 5919 5919 5919 5917 5919 5920 5920 5920
5872 5871 5871 5871 5871 5871 5872 5873 5873 5874 5875 5876 5877 5878 5879 5881 5883 5886 5888 5891 5893 5895 5897 5898 5899 5901 5902 5906 5907 5907 5907 5908 5909 5911 5911 5912 5914 5915 5918 5918 5920 5920 5918 5919 5920 5921 5921
5870 5868 5867 5867 5866 5867 5867 5868 5869 5869 5870 5870 5872 5872 5873 5874 5876 5879 5883 5885 5888 5890 5892 5894 5896 5897 5898 5902 5903 5901 5903 5906 5906 5907 5909 5911 5913 5915 5916 5918 5920 5920 5919 5919 5921 5921 5921
5867 5864 5863 5862 5862 5863 5863 5864 5864 5864 5864 5865 5865 5866 5867 5868 5870 5874 5877 5880 5883 5885 5888 5890 5891 5893 5895 5898 5899 5900 5901 5902 5905 5905 5906 5909 5912 5913 5915 5917 5919 5918 5918 5918 5920 5920 5920
5865 5862 5859 5858 5858 5859 5859 5859 5860 5860 5860 5860 5860 5860 5861 5863 5865 5868 5872 5876 5879 5882 5884 5885 5887 5890 5891 5894 5896 5897 5898 5900 5902 5904 5904 5906 5909 5911 5913 5915 5916 5916 5917 5918 5916 5918 5918
5863 5860 5857 5856 5856 5855 5855 5855 5855 5856 5856 5856 5856 5856 5857 5859 5861 5865 5869 5873 5877 5880 5880 5882 5884 5885 5886 5888 5890 5892 5893 5896 5899 5901 5902 5902 5906 5910 5911 5912 5912 5915 5917 5917 5916 5917 5915
5862 5859 5856 5855 5853 5853 5852 5852 5852 5851 5852 5852 5853 5853 5854 5856 5857 5861 5865 5869 5872 5874 5875 5877 5879 5880 5882 5883 5885 5888 5891 5892 5895 5898 5899 5900 5904 5908 5908 5908 5910 5913 5916 5916 5914 5917 5919
5861 5858 5856 5854 5852 5851 5850 5850 5849 5849 5849 5849 5849 5850 5851 5853 5855 5859 5862 5864 5867 5870 5871 5875 5875 5876 5879 5881 5881 5882 5885 5887 5890 5892 5895 5897 5902 5901 5904 5905 5907 5911 5913 5914 5914 5914 5915
5860 5858 5855 5853 5851 5850 5849 5848 5847 5847 5846 5846 5847 5847 5848 5850 5854 5855 5857 5860 5863 5865 5867 5869 5870 5872 5874 5875 5876 5878 5879 5882 5885 5887 5889 5892 5895 5898 5900 5903 5906 5909 5911 5911 5912 5914 5913
5858 5856 5854 5852 5850 5848 5847 5846 5845 5845 5845 5844 5844 5844 5845 5847 5850 5851 5853 5856 5858 5861 5863 5865 5866 5866 5868 5870 5872 5874 5874 5877 5879 5881 5884 5889 5890 5892 5895 5901 5902 5908 5907 5908 5907 5908 5910
5854 5853 5852 5850 5849 5847 5846 5845 5844 5843 5843 5842 5842 5842 5842 5844 5846 5847 5850 5852 5855 5858 5858 5858 5859 5860 5862 5865 5867 5869 5871 5873 5874 5876 5878 5882 5884 5886 5891 5894 5896 5902 5902 5903 5903 5905 5905
5850 5849 5848 5848 5847 5846 5844 5843 5842 5841 5840 5840 5840 5840 5840 5842 5843 5844 5846 5848 5851 5852 5853 5852 5854 5857 5858 5860 5863 5865 5867 5868 5870 5872 5875 5877 5879 5883 5886 5888 5892 5897 5898 5900 5901 5902 5904
5846 5845 5844 5844 5844 5843 5842 5841 5840 5839 5838 5838 5837 5837 5838 5839 5839 5840 5842 5845 5847 5846 5846 5850 5853 5855 5856 5856 5858 5860 5862 5865 5865 5867 5870 5872 5876 5879 5884 5887 5892 5893 5896 5897 5898 5900 5901
5842 5841 5840 5840 5840 5839 5839 5838 5837 5836 5835 5835 5834 5834 5835 5834 5835 5836 5839 5841 5841 5841 5843 5847 5850 5851 5851 5851 5854 5856 5859 5859 5861 5863 5866 5869 5874 5875 5878 5882 5885 5887 5890 5895 5894 5895 5896
5836 5836 5836 5836 5836 5835 5835 5834 5833 5832 5831 5831 5830 5830 5830 5830 5831 5833 5835 5837 5837 5838 5838 5841 5844 5849 5848 5849 5851 5854 5855 5855 5857 5860 5861 5865 5868 5869 5874 5877 5881 5884 5888 5889 5890 5891 5892
5830 5831 5830 5830 5830 5830 5829 5828 5827 5827 5826 5825 5824 5825 5826 5826 5827 5828 5831 5832 5832 5831 5834 5837 5838 5842 5844 5846 5847 5850 5853 5854 5853 5855 5858 5860 5863 5867 5870 5874 5880 5882 5884 5885 5887 5888 5887
5824 5824 5824 5824 5824 5824 5824 5822 5821 5821 5820 5819 5818 5820 5820 5821 5824 5824 5825 5825 5826 5825 5830 5833 5834 5837 5840 5841 5843 5846 5847 5849 5850 5850 5853 5856 5859 5862 5867 5872 5875 5876 5878 5880 5882 5886 5885
5817 5818 5818 5818 5818 5818 5817 5816 5815 5814 5814 5814 5814 5814 5816 5816 5817 5818 5819 5822 5825 5824 5825 5829 5832 5833 5836 5839 5841 5841 5843 5846 5846 5848 5849 5852 5854 5859 5863 5868 5871 5873 5874 5877 5878 5879 5879
5811 5811 5812 5812 5812 5812 5811 5810 5809 5808 5808 5810 5810 5811 5810 5810 5812 5813 5816 5818 5819 5818 5820 5823 5829 5829 5832 5834 5837 5839 5842 5842 5843 5845 5846 5848 5851 5854 5860 5865 5867 5869 5871 5872 5874 5874 5876
5804 5805 5805 5805 5805 5806 5805 5805 5805 5804 5804 5805 5805 5806 5805 5805 5805 5808 5810 5811 5813 5815 5814 5817 5820 5824 5827 5831 5832 5834 5838 5839 5840 5842 5843 5845 5848 5850 5854 5858 5861 5864 5866 5867 5868 5869 5871
5797 5798 5798 5799 5799 5799 5799 5799 5800 5800 5799 5800 5800 5801 5800 5801 5802 5803 5806 5807 5809 5812 5812 5811 5815 5818 5821 5825 5826 5829 5831 5834 5836 5838 5839 5841 5842 5845 5848 5852 5854 5857 5861 5863 5865 5866 5866
5790 5790 5791 5792 5792 5792 5792 5793 5794 5794 5794 5793 5794 5795 5795 5796 5797 5798 5802 5802 5805 5806 5808 5808 5809 5812 5815 5816 5819 5819 5822 5827 5830 5833 5835 5836 5838 5839 5843 5845 5845 5848 5855 5858 5860 5862 5863
5781 5782 5784 5784 5785 5785 5785 5787 5788 5788 5788 5788 5788 5789 5789 5790 5791 5793 5795 5797 5799 5799 5799 5802 5804 5805 5809 5809 5811 5812 5815 5819 5824 5828 5830 5832 5833 5834 5836 5839 5838 5844 5849 5853 5855 5855 5856
5771 5774 5775 5776 5777 5778 5778 5780 5781 5781 5782 5782 5781 5783 5783 5783 5786 5787 5789 5791 5793 5792 5793 5794 5795 5798 5801 5803 5804 5805 5808 5812 5815 5818 5823 5826 5827 5827 5828 5831 5834 5837 5841 5846 5848 5849 5850
5761 5763 5766 5768 5769 5770 5771 5773 5774 5774 5776 5776 5776 5777 5778 5778 5779 5781 5782 5785 5786 5786 5786 5786 5786 5790 5794 5795 5798 5800 5803 5808 5811 5812 5814 5815 5818 5822 5821 5823 5827 5834 5833 5836 5841 5844 5847
5750 5753 5756 5758 5760 5762 5764 5765 5767 5768 5769 5770 5770 5770 5772 5772 5771 5774 5776 5778 5779 5779 5779 5779 5779 5782 5785 5787 5791 5794 5798 5801 5802 5804 5807 5808 5812 5814 5814 5816 5823 5826 5827 5830 5835 5842 5843
5739 5742 5745 5748 5750 5753 5756 5758 5760 5761 5762 5763 5765 5764 5766 5766 5764 5769 5770 5771 5772 5773 5773 5774 5774 5775 5777 5781 5786 5789 5791 5794 5796 5798 5800 5802 5803 5805 5809 5811 5816 5822 5822 5826 5831 5834 5839
5727 5731 5734 5737 5740 5744 5746 5749 5751 5753 5754 5756 5757 5757 5759 5760 5758 5763 5764 5764 5765 5767 5768 5768 5770 5771 5771 5775 5779 5781 5784 5787 5789 5790 5792 5795 5797 5799 5801 5805 5810 5817 5818 5819 5822 5827 5833